Wind_Speed
12 12 12 10 8 6 6 7 8 8 9 9 9 9 9 10 11 12 13 13 14 14
13 13 11 9 7 6 7 7 7 8 8 8 8 8 8 8 9 11 13 14 14 16
12 11 9 7 7 7 6 7 7 7 7 7 7 8 8 8 8 11 11 13 15 16
10 11 8 7 6 6 7 7 7 7 7 8 8 8 9 9 9 10 11 11 13 15
12 9 9 8 8 7 6 6 7 7 8 9 9 9 10 11 10 11 12 12 13 14
10 8 7 6 6 6 6 6 7 8 9 10 10 11 11 12 13 12 13 13 13 14
7 6 6 5 5 5 6 7 8 8 10 10 11 12 12 12 13 14 14 14 15 15
6 6 6 6 6 7 7 8 9 10 10 11 11 12 12 13 14 16 16 16 16 16
7 6 7 7 7 8 8 9 10 10 11 12 11 11 12 12 14 16 17 18 17 16
7 7 7 7 8 8 9 10 11 11 11 11 12 11 11 11 13 15 17 17 18 19
8 7 7 7 7 8 10 10 11 10 9 11 11 10 11 13 15 17 19 20 20 21
8 8 8 8 9 9 10 10 10 11 11 11 12 14 16 17 18 19 21 22 22 23
9 8 8 8 9 9 9 11 11 12 12 14 17 17 18 19 21 24 26 26 24 23
8 8 8 9 9 10 11 11 12 14 16 18 19 20 20 20 21 23 26 28 30 28
Wind_Direction
231 233 233 238 250 260 286 302 307 313 316 314 311 303 294 286 276 265 267 269 269 271
231 233 234 239 252 272 285 295 306 314 316 316 315 310 305 298 287 274 274 275 273 272
228 233 232 239 251 269 283 293 303 308 315 316 314 310 309 309 303 290 286 281 274 272
223 220 226 242 256 266 275 285 293 302 310 311 313 312 311 310 305 298 294 285 278 278
213 220 229 237 245 261 278 290 299 305 308 312 312 312 311 308 305 299 295 292 285 284
215 225 235 243 260 274 283 292 302 308 311 312 311 310 307 303 300 297 297 298 294 293
226 233 238 244 258 274 280 286 294 299 301 301 302 305 305 301 299 300 301 302 297 295
222 225 224 238 251 259 271 284 295 299 298 298 303 308 308 306 304 304 305 304 302 300
224 231 238 247 260 273 281 292 298 300 303 305 309 311 308 303 302 303 303 305 305 302
234 239 250 261 271 281 291 297 299 302 305 308 315 319 318 312 305 303 305 305 306 306
243 254 262 268 272 284 293 296 300 303 305 308 315 321 321 317 312 307 306 304 304 300
248 253 254 260 276 284 289 291 295 298 304 305 308 319 321 319 317 312 308 308 307 304
241 241 250 269 278 285 286 292 294 299 303 308 310 314 315 318 317 310 308 306 303 300
232 243 261 271 276 282 285 288 294 298 304 310 315 317 318 317 311 306 306 305 305 305
Height
823 825 827 829 831 831 832 831 831 830 829 829 829 828 828 827 827 826 826 827 827 827
822 824 826 827 828 829 829 828 828 827 826 826 826 826 825 824 823 823 823 823 823 823
819 823 824 825 825 826 826 825 825 824 823 823 823 823 822 821 821 820 820 820 820 820
819 822 822 823 823 823 823 822 822 821 821 821 820 820 819 818 817 817 816 816 816 815
821 819 818 819 819 820 821 821 821 820 820 819 818 818 816 815 815 814 813 813 812 811
816 816 817 818 818 819 820 820 820 819 818 818 817 816 815 813 812 811 810 810 808 808
814 814 815 815 817 817 818 817 816 815 814 814 813 813 812 811 810 809 808 806 805 804
809 810 811 812 813 813 814 813 812 812 811 811 810 810 809 808 807 806 804 803 802 801
807 808 809 810 811 811 811 811 810 810 809 808 807 807 805 804 803 801 800 797 796 796
805 807 808 808 809 809 809 809 809 807 806 805 804 803 801 802 799 797 795 793 790 788
804 805 806 806 807 807 806 805 805 804 802 801 801 800 798 797 794 792 790 789 786 784
802 803 804 804 804 803 802 802 801 800 798 797 797 797 796 793 789 787 784 784 782 779
799 800 800 800 800 800 799 798 798 798 798 795 793 793 792 788 784 781 779 778 777 775
795 796 796 795 796 796 795 794 794 793 793 790 789 788 785 783 779 777 774 772 769 768